Weather in Artyk

Russia / Sakha (Yakutia) Republic     64°10′48″N   145°07′37″E
temp.,
°C
wind,
m/s
gust,
m/s
humid.,
%
clouds,
%
prec.,
mm/h
press.,
hPa
HPBL,
m
14 june, mon
mon1401:00+13ssw2243100 0.0 100312
04:00+14ese2246100 0.0 100318
07:00+17s343718 0.0 1002526
10:00+19ssw692863 0.0 10002967
13:00+18sw873499 0.0 9992164
16:00+17sw564093 0.0 9981690
19:00+15w3245100 0.0 9971019
22:00+10nw347030 0.1 999166
15 june, tue
tue1501:00+8nw3477100 0.2 1000238
04:00+8nw2381100 0.4 1002201
07:00+8wnw2382100 0.2 1002253
10:00+9nw2378100 0.2 1002372
13:00+11wnw236793 0.0 1001889
16:00+12wnw226295 0.1 1001916
19:00+13wnw1255100 0.0 999931
22:00+9s1172100 0.0 99910
16 june, wed
wed1601:00+6sse1184100 0.3 99910
04:00+8se22815 0.4 99921
07:00+13ssw24545 0.0 997533
10:00+16wnw10123518 0.0 9962251
13:00+17wnw12122913 0.0 9962482
16:00+16nw8112929 0.0 9972290
19:00+14nnw563752 0.0 9991697
22:00+7nnw22629 0.0 100315
17 june, thu
thu1701:00+5n226882 0.0 100413
04:00+7nnw11585 0.0 100582
07:00+9w234887 0.0 10051178
10:00+12nw4636100 0.0 10041790
13:00+15wnw6824100 0.0 10032563
16:00+15nw682498 0.0 10032500
19:00+15nw3726100 0.0 10022261
22:00+10nne3342100 0.0 100432
18 june, fri
fri1801:00+7nnw2255100 0.0 100517
04:00+8n2257100 0.0 100740
07:00+10nw1253100 0.0 1006637
10:00+12wnw2250100 0.0 1005968
13:00+14s3547100 0.0 10021562
16:00+13nw71061100 0.4 10001295
19:00+6nne71081100 0.3 1005818
22:00+6n4883100 1.7 1008834